Theta_e
299 302 303 304 305 306 305 306 308 308 307 307 308 310 309 309 304 303 299 303 305 306 306 306 311 318 317 315 316 318 326 326 324 324 320 317 317 314 310 308 306 305 304 304 304
296 301 303 305 305 304 304 304 302 306 309 307 308 308 309 309 303 298 298 303 306 306 306 306 305 315 317 318 317 321 325 324 320 318 318 319 312 313 312 308 307 305 304 304 304
296 299 302 305 305 303 302 302 301 302 308 310 307 303 306 310 300 298 299 303 306 307 307 306 306 310 318 319 320 319 323 323 318 316 316 318 315 311 311 310 306 305 304 303 303
296 296 300 305 305 303 304 304 300 299 302 308 307 299 302 310 296 297 299 304 306 307 308 307 306 307 316 320 319 323 320 321 320 314 316 318 314 312 309 307 306 304 302 301 300
296 296 297 304 305 303 302 299 300 300 299 302 303 302 298 294 296 296 300 305 306 306 306 306 306 307 308 318 313 320 321 316 317 314 315 317 316 312 310 307 304 302 300 300 299
296 297 297 304 303 300 300 300 299 300 301 300 298 298 297 295 296 297 302 306 305 306 305 305 306 306 307 307 307 309 312 317 315 314 312 310 310 311 307 304 302 301 300 299 298
295 297 299 304 301 300 300 300 299 299 300 301 298 298 296 295 296 297 304 306 305 306 305 303 305 305 307 307 306 306 307 302 299 303 309 308 307 306 304 300 300 299 298 297 297
295 297 300 303 300 298 298 299 300 299 299 300 300 297 295 296 297 300 304 306 304 301 301 299 305 301 301 304 302 305 304 305 299 297 304 308 307 303 301 299 298 297 297 296 296
295 297 299 302 300 301 300 297 300 300 298 298 298 296 294 296 296 296 298 299 302 300 299 298 296 294 296 302 301 300 302 302 302 298 303 307 304 301 299 298 297 296 296 295 295
295 296 298 300 302 301 301 302 297 297 297 297 296 295 294 294 295 294 299 301 302 299 296 295 293 293 294 297 301 300 299 296 295 296 302 302 301 299 298 297 296 295 295 294 293
295 296 297 298 298 301 301 301 297 294 295 293 294 294 295 295 295 293 295 297 295 294 293 293 292 291 291 293 296 294 293 293 294 296 302 302 300 298 296 295 294 293 293 293 293
295 295 296 299 299 299 300 297 296 296 294 295 295 295 295 294 293 293 295 296 292 291 293 291 291 291 293 294 293 292 293 293 294 295 301 301 299 297 294 294 293 293 292 292 292
295 296 296 298 299 300 298 299 299 299 294 295 295 294 294 294 292 293 291 294 294 292 290 290 291 292 292 291 293 293 291 292 293 295 300 300 300 297 294 293 292 291 292 292 291
295 296 296 297 299 299 299 299 300 301 294 294 294 294 293 293 293 294 291 293 293 296 293 291 290 291 291 292 292 294 292 293 294 295 297 301 301 298 294 293 292 290 289 289 290
294 295 296 297 297 297 298 299 298 300 292 293 294 294 292 292 292 291 290 292 290 290 291 292 290 288 289 290 291 293 292 293 294 296 295 297 293 299 295 293 292 289 289 288 288
294 295 295 296 297 297 299 298 299 295 287 296 293 292 291 290 291 291 288 288 289 291 290 290 290 289 288 289 290 291 295 293 298 296 291 293 292 294 296 293 291 289 288 288 288
295 294 296 295 294 296 297 298 296 292 291 292 292 292 290 289 291 290 288 287 287 289 290 290 288 289 288 290 290 292 290 281 286 285 291 293 289 292 292 291 288 288 288 287 287
294 294 293 295 298 298 300 295 289 284 290 294 293 293 291 289 290 289 289 287 286 287 287 287 290 288 288 289 290 291 289 284 282 288 290 290 287 290 292 289 287 288 288 287 287
294 295 293 295 298 300 293 290 289 290 294 292 293 292 291 290 290 290 287 287 287 286 285 285 288 288 289 289 288 289 287 291 281 273 282 290 294 294 292 289 288 288 287 286 286
294 297 293 296 298 296 292 290 291 292 290 293 294 291 290 289 289 288 289 288 288 287 287 287 285 289 289 290 289 289 289 285 278 278 278 286 289 291 293 292 288 288 286 285 285
296 291 294 297 295 290 290 282 293 289 291 293 291 291 290 290 289 288 288 289 288 288 288 287 282 287 289 287 287 288 289 287 281 283 279 282 287 284 291 291 287 287 286 285 285
296 291 293 297 291 274 281 286 290 288 289 290 291 291 290 289 289 289 290 290 288 288 286 288 280 281 288 286 286 289 287 285 280 281 284 285 285 287 288 288 288 287 287 287 286
289 287 293 296 288 278 284 290 289 288 289 289 290 290 289 289 284 288 286 288 288 288 287 286 280 277 282 284 287 287 288 287 281 278 279 280 284 286 286 286 287 287 287 287 287
289 290 286 288 286 287 283 285 286 289 288 289 288 288 288 288 286 281 287 288 288 287 290 287 282 281 283 283 284 287 286 284 280 275 283 284 286 287 287 287 287 287 287 286 286
286 283 286 284 285 287 288 284 284 286 288 288 288 287 287 282 287 282 284 288 287 289 288 284 280 283 283 285 286 287 288 288 285 285 282 287 286 286 286 286 286 287 286 286 286
287 287 283 282 289 289 287 288 287 288 287 287 288 288 286 282 286 283 285 287 288 287 288 285 278 279 279 282 285 287 287 287 287 287 286 286 286 286 286 286 284 285 285 286 286
290 290 287 285 288 285 286 288 289 288 288 288 287 287 288 287 286 287 286 286 287 286 285 282 278 275 277 279 277 280 281 285 286 285 285 284 286 285 284 285 285 285 285 285 285
Wind_Speed
20 20 21 21 20 19 19 18 17 14 8 7 10 6 9 10 24 43 25 24 24 19 13 11 9 7 8 5 4 0 3 4 2 3 3 7 12 11 16 20 22 11 15 11 26
21 19 19 19 19 19 19 21 21 15 10 6 6 2 6 8 7 30 37 25 20 20 11 8 6 7 4 4 3 3 3 5 6 3 2 6 21 12 14 20 15 22 27 35 38
19 17 16 16 17 18 19 20 22 20 13 10 8 8 5 3 7 10 38 25 20 14 8 6 5 2 5 2 2 1 4 10 9 8 8 7 16 17 15 17 16 17 18 29 36
16 15 12 12 15 16 16 17 18 23 16 8 7 11 13 6 5 18 32 23 17 14 7 5 4 4 5 5 3 8 8 5 5 5 3 9 7 17 19 13 15 17 21 29 31
16 14 9 10 11 13 16 18 16 16 26 19 7 2 11 9 5 28 21 16 14 15 16 4 6 3 4 4 4 9 5 8 9 8 6 10 11 13 15 15 21 25 30 26 27
15 14 10 10 12 12 12 19 18 14 11 15 29 22 15 15 23 26 15 13 20 16 17 12 3 2 4 4 6 5 8 7 4 11 14 21 14 8 14 14 21 23 22 25 29
14 14 11 11 11 10 7 10 18 16 8 11 18 15 31 7 23 30 12 13 20 15 7 19 3 4 1 4 3 11 15 14 12 6 6 7 21 15 12 16 20 20 17 20 27
11 13 9 10 13 18 15 4 5 17 12 8 2 15 7 26 29 34 20 14 18 27 20 18 8 6 6 4 7 6 5 4 6 13 7 9 8 12 11 16 17 16 15 16 23
10 13 7 10 14 17 24 26 7 7 24 21 13 8 6 24 36 32 22 13 11 15 25 28 10 6 9 4 5 7 3 5 3 17 1 7 7 8 10 14 14 13 13 14 15
11 9 9 4 10 9 7 7 35 17 5 6 27 5 10 9 18 28 25 20 8 10 9 12 8 7 9 8 2 2 4 4 5 8 18 17 12 8 9 13 12 11 11 13 14
11 5 9 8 6 8 5 2 5 9 25 10 3 5 5 21 7 31 28 24 12 9 7 10 14 8 7 4 5 6 5 3 3 4 8 11 10 7 7 10 10 8 8 10 12
10 7 4 11 5 5 3 8 4 8 9 8 7 3 8 12 6 31 30 8 11 12 3 7 14 7 4 7 9 8 3 5 3 5 10 9 9 6 6 7 8 8 8 8 9
11 11 4 9 11 12 18 11 10 6 7 6 5 5 5 8 6 13 15 5 7 14 17 11 4 5 6 10 8 3 6 4 2 6 7 10 4 4 4 5 7 7 5 5 7
11 13 3 4 7 8 6 9 5 3 5 13 10 8 11 6 6 14 15 0 7 3 4 8 6 6 7 6 3 1 4 2 2 3 4 2 2 4 4 3 5 5 6 6 6
17 5 13 4 13 5 6 6 2 2 6 10 7 8 11 9 5 13 13 8 11 7 6 1 5 7 6 3 5 4 9 2 2 3 3 5 4 2 4 2 3 5 6 6 7
14 15 2 7 11 8 6 3 1 7 2 5 6 7 6 8 8 8 9 10 3 7 7 4 3 4 3 4 3 9 3 6 4 3 3 5 4 3 4 4 3 2 4 4 5
8 16 16 8 4 5 5 1 6 7 4 5 3 5 3 7 7 9 6 13 5 5 7 6 4 5 4 5 7 10 6 4 5 4 4 2 4 6 5 4 5 2 2 5 5
3 9 13 15 6 4 2 6 8 3 4 1 1 1 5 6 5 7 3 6 6 5 3 4 5 8 9 3 3 5 4 4 4 2 5 7 4 3 6 6 4 1 2 5 6
1 4 6 13 7 3 5 6 8 7 4 5 2 4 4 4 3 5 5 2 4 6 5 3 1 4 3 3 2 5 6 4 6 1 3 3 5 1 3 3 1 3 5 7 7
2 1 6 11 5 3 6 5 3 1 3 2 2 2 1 3 3 4 1 2 1 4 1 2 3 2 4 3 5 6 1 3 4 2 4 4 5 4 6 6 3 2 5 7 7
3 3 7 6 2 7 4 5 3 3 2 1 3 3 2 2 3 1 2 2 2 2 5 3 3 3 1 5 1 4 2 5 4 3 4 2 6 6 6 6 5 3 5 8 8
4 2 7 3 4 2 3 6 4 3 2 2 3 2 4 3 2 3 2 2 3 2 3 1 4 1 2 6 4 1 3 4 4 5 2 2 6 3 1 3 1 7 14 15 9
3 2 4 2 4 1 3 2 1 4 4 4 3 2 1 4 2 2 2 1 3 2 4 2 1 3 6 5 4 1 2 4 4 3 5 5 6 2 6 6 14 14 14 16 12
3 1 4 6 2 8 6 3 3 1 3 3 4 3 4 2 3 4 2 3 5 3 6 5 1 6 6 4 3 2 3 3 6 3 3 9 9 20 18 19 16 17 16 16 12
4 2 2 2 3 4 4 5 5 5 2 3 1 5 6 3 2 2 2 3 2 5 3 5 3 1 4 6 4 9 13 12 12 9 6 15 14 19 16 16 15 17 15 13 9
4 4 3 1 3 5 1 7 10 4 8 4 5 8 6 7 8 8 6 4 4 3 5 3 2 2 5 4 5 12 18 17 16 16 15 22 23 24 20 15 10 14 11 10 10
4 4 4 3 2 4 5 7 10 9 5 4 7 6 6 6 6 3 5 4 6 7 6 6 4 3 5 4 6 8 10 13 6 7 7 8 11 7 6 9 11 9 9 12 9
Wind_Direction
38 38 37 45 52 51 45 45 45 48 71 124 145 121 55 27 27 39 32 337 343 348 345 353 2 36 42 68 52 301 90 136 78 345 313 31 34 20 44 58 52 48 46 9 23
38 39 41 52 54 53 55 57 44 46 69 126 158 276 314 4 25 31 354 358 358 353 348 2 356 6 58 84 56 58 95 116 87 50 333 68 40 39 52 36 32 26 23 22 33
34 40 45 58 56 61 65 54 50 48 58 88 97 13 274 165 55 337 351 356 4 9 346 321 343 34 60 73 47 108 108 123 65 57 19 76 53 42 43 48 39 36 26 25 29
31 37 46 68 66 68 58 47 56 54 51 93 73 58 60 132 59 329 345 353 14 10 33 32 11 35 57 61 23 93 112 90 106 49 72 78 76 61 58 63 59 47 44 39 33
28 28 52 74 71 64 63 54 59 57 52 64 57 44 49 52 16 338 347 9 20 19 34 33 46 41 64 100 74 89 133 128 132 156 90 113 91 95 59 55 51 45 40 39 35
28 29 69 80 84 82 67 54 59 66 74 54 57 62 69 60 347 356 358 21 20 22 31 28 17 15 77 70 67 76 86 128 103 78 88 74 63 53 44 57 53 48 40 34 33
30 35 79 88 85 46 35 59 59 62 65 62 50 54 56 30 355 10 20 25 23 13 356 14 2 85 68 79 41 137 88 62 18 9 138 107 43 51 43 57 58 57 51 42 33
36 40 80 102 97 70 56 57 64 51 55 72 91 41 79 5 16 29 28 39 57 51 64 36 83 75 40 335 25 36 52 72 26 12 17 89 67 38 41 57 53 49 45 43 38
34 39 74 121 135 87 65 51 95 92 77 39 35 79 5 5 9 3 11 359 54 47 40 40 59 61 9 52 35 12 67 43 38 9 131 92 102 47 46 61 58 46 43 39 34
30 40 48 151 178 198 37 61 59 71 24 10 26 46 15 315 340 358 21 35 24 13 20 21 44 57 27 35 91 13 55 32 41 1 79 89 96 62 54 63 58 49 42 40 33
28 46 24 36 214 214 261 302 25 10 51 93 281 99 285 340 21 9 3 23 14 46 59 26 60 33 334 346 95 100 83 53 355 50 75 97 96 79 61 62 57 47 38 38 32
24 25 35 32 86 131 170 75 99 148 81 66 97 79 1 348 12 3 12 58 38 52 21 45 48 331 353 33 66 52 62 4 295 346 101 108 91 78 64 63 59 49 41 34 24
35 22 170 75 78 92 104 102 115 129 81 25 40 24 346 1 39 348 16 356 62 53 56 74 314 319 41 36 25 44 80 331 240 7 68 119 116 104 65 64 61 45 28 18 19
34 27 159 123 89 90 76 118 134 124 79 345 352 9 354 338 49 4 8 253 37 112 75 68 337 26 32 58 359 312 102 269 269 82 169 151 239 202 147 80 50 33 21 9 7
34 34 58 103 123 90 139 143 133 98 50 321 335 324 351 68 298 351 7 26 59 23 84 68 5 13 33 341 329 267 322 212 177 95 74 344 72 261 178 60 34 22 13 8 6
36 37 189 65 73 108 134 139 119 43 264 354 345 356 18 16 4 327 13 37 59 60 46 75 2 44 306 297 314 297 20 45 52 67 34 262 116 223 203 176 140 27 352 353 1
37 42 54 64 79 120 131 55 38 97 332 307 330 6 59 359 11 15 25 42 41 41 15 347 20 338 17 359 347 15 43 2 1 12 211 28 33 243 163 178 137 141 348 356 357
9 24 38 45 56 117 106 53 71 245 231 193 325 34 70 7 15 15 39 27 24 37 63 33 354 13 335 58 297 357 90 132 203 317 287 334 260 290 185 119 119 115 15 1 333
290 356 21 5 21 104 77 51 190 199 151 152 57 70 353 18 82 57 55 60 15 20 111 42 320 328 9 355 51 317 42 145 104 81 30 277 289 306 189 137 49 352 359 328 314
96 18 22 355 359 79 70 176 170 163 104 91 153 137 175 325 52 44 43 284 81 42 108 195 29 3 310 352 20 82 93 38 11 54 304 293 275 245 223 223 247 316 325 305 308
100 53 3 356 8 48 120 205 157 103 103 138 167 122 137 153 108 148 212 231 138 35 73 107 90 290 24 27 312 353 34 57 110 126 173 289 270 217 214 211 225 265 296 285 289
105 44 1 21 50 28 112 169 138 157 91 112 118 120 151 149 112 128 195 199 134 123 104 139 142 233 206 295 270 131 170 110 113 272 222 158 270 292 76 261 308 297 303 303 291
106 217 9 18 125 8 301 70 119 136 169 151 128 128 141 148 70 199 156 130 132 96 164 206 323 6 349 354 351 124 197 120 103 72 215 141 261 250 286 276 312 311 302 301 297
87 49 339 50 79 129 140 195 130 28 142 134 126 109 90 121 65 199 191 189 174 142 141 95 138 173 199 197 136 258 226 155 130 139 203 227 274 279 294 293 299 300 297 297 292
36 240 177 216 322 112 105 127 139 172 153 128 127 192 155 116 85 241 274 159 158 207 125 117 192 202 261 250 215 246 255 240 212 224 205 272 261 271 274 281 286 287 290 294 276
130 132 11 150 86 97 334 214 165 181 148 219 212 179 162 158 179 193 148 201 192 153 157 159 259 86 302 329 267 260 258 247 242 246 247 252 268 266 270 277 272 277 288 282 262
119 116 107 290 100 96 208 181 194 149 219 184 174 127 177 219 167 174 161 162 173 158 175 153 130 78 270 345 340 299 244 223 179 200 189 209 242 273 262 267 275 275 286 282 260